Regional Weather Roundup
Issued by NWS Sterling, VA

Home | Current Version | Previous Version | Text Only | Print | Product List | Glossary Off
Versions: 1 2 3 4 5 6 7 8 9 10 11 12 13 14 15 16 17 18 19 20 21 22 23 24 25 26 27 28 29 30 31 32 33 34 35 36 37 38 39 40 41 42 43 44 45 46 47 48 49 50

000
ASUS41 KLWX 211610
RWRLWX

REGIONAL WEATHER ROUNDUP
NATIONAL WEATHER SERVICE BALTIMORE MD/WASHINGTON DC
1100 AM EST FRI NOV 21 2014

Note: "FAIR" indicates few or no clouds below 12,000 feet
with no significant weather and/or obstructions to visibility.
 TC=TEMPERATURE CELSIUS

 * =Non NWS site. Station does not report precipitation (e.g. rain,
    snow, etc.), thunder, or fog.

DCZ001-MDZ009-015-VAZ040>042-051-053>054-211700-
WASHINGTON METRO

CITY           SKY/WX    TMP DP  RH WIND       PRES   REMARKS
WASHINGTON NAT MOSUNNY   35   7  31 N16G23    30.47R WCI  25
DULLES         MOSUNNY   32   8  36 NW16G23   30.46F WCI  21
ANDREWS AFB    SUNNY     33   6  32 NW17G24   30.44R WCI  21
FT BELVOIR     SUNNY     34   7  32 W14G23    30.47R WCI  24
QUANTICO       MOSUNNY   35   5  28 N21G28    30.49R WCI  24
COLLEGE PARK*  MOSUNNY   34   9  35 NW10G17   30.45R WCI  26
LEESBURG*      MOSUNNY   34  12  40 NW13G22   30.46S WCI  25
MANASSAS*      MOSUNNY   36   9  32 NW15      30.47R WCI  26
GAITHERSBURG*  MOSUNNY   30   7  37 NW13G18   30.47R WCI  20

$$

MDZ006>007-011-014-211700-
BALTIMORE METRO

CITY           SKY/WX    TMP DP  RH WIND       PRES   REMARKS
BWI AIRPORT    MOSUNNY   33   7  33 NW20G26   30.43R WCI  21
MD SCIENCE CTR   N/A     32   6  33 MISG      30.44R
MARTIN STATE   MOSUNNY   36  10  35 MISG      30.45R
ANNAPOLIS      MOSUNNY   34  14  43 NW17      30.44R WCI  23
FORT MEADE*    MOSUNNY   34   9  35 NW10G22   30.47R WCI  26

$$

MDZ012-015-019>023-211700-
MARYLAND EASTERN SHORE

CITY           SKY/WX    TMP DP  RH WIND       PRES   REMARKS
OCEAN CITY     SUNNY     35   8  32 NW17G30   30.40R WCI  25
SALISBURY      MOSUNNY   37   9  31 NW15      30.42R WCI  28
BAY BRIDGE AP*   N/A     32   9  37 NW14G23   30.45R WCI  22
CAMBRIDGE*     MOSUNNY   36  12  38 NW14G20   30.43S WCI  27
EASTON*        MOSUNNY   36  12  38 NW22G29   30.47R WCI  24

$$

MDZ017>025-211700-
SOUTHERN MARYLAND

CITY           SKY/WX    TMP DP  RH WIND       PRES   REMARKS
PATUXENT RIVER MOSUNNY   36   9  32 NW17      30.45R WCI  26
ST INIGOES     SUNNY     37   6  27 NW15G22   30.44R WCI  28
LEONARDTOWN*   SUNNY     34   7  32 W13G18    30.45S WCI  25

$$

MDZ003>005-211700-
NORTH CENTRAL MARYLAND

CITY           SKY/WX    TMP DP  RH WIND       PRES   REMARKS
FREDERICK*     SUNNY     37   3  23 N9G20     30.47R
HAGERSTOWN APT MOSUNNY   31   7  36 NW22G29   30.42R WCI  18
WESTMINSTER*   MOSUNNY   28   3  34 NW9G18    30.39S WCI  20

$$

MDZ501>502-211700-
WESTERN MARYLAND

CITY           SKY/WX    TMP DP  RH WIND       PRES   REMARKS
OAKLAND*       NOT AVBL
CUMBERLAND*    PTSUNNY   32   9  37 W8G20     30.50R WCI  25

$$

VAZ025>031-211700-
SHENANDOAH VALLEY

CITY           SKY/WX    TMP DP  RH WIND       PRES   REMARKS
WINCHESTER*    PTSUNNY   32   1  27 NW14G22   30.44R WCI  22
FRONT ROYAL*   FAIR      32   7  34 N10G18    30.43S WCI  24
LURAY*         FAIR      34   9  35 W9        30.43R WCI  26
NEW MARKET*    FAIR      32   7  34 N6        30.42R
STAUNTON*      SUNNY     33   4  29 N8        30.43R WCI  26
WAYNESBORO*    FAIR      31   4  31 NW8       30.38S WCI  24

$$

WVZ021-048>050-054>055-211700-
EASTERN WEST VIRGINIA PANHANDLE

CITY           SKY/WX    TMP DP  RH WIND       PRES   REMARKS
MARTINSBURG    MOSUNNY   33   4  29 NW12G23   30.45R WCI  24
PETERSBURG*    SUNNY     32   2  28 NW8G17    30.45R WCI  24

$$

VAZ036>039-050-211700-
CENTRAL FOOTHILLS

CITY           SKY/WX    TMP DP  RH WIND       PRES   REMARKS
CHARLOTTESVILL SUNNY     35   7  31 NW9       30.44R WCI  28
CULPEPER*      SUNNY     36   7  30 N9        30.46S WCI  29
ORANGE*        SUNNY     36   9  32 W10G16    30.46R WCI  28
GORDONSVILLE*  FAIR      34   6  30 NW9       30.44R WCI  27
WARRENTON*     FAIR      36  15  42 NW13G18   30.46S WCI  28

$$

VAZ055>057-211700-
NORTH AND CENTRAL PIEDMONT

CITY           SKY/WX    TMP DP  RH WIND       PRES   REMARKS
FREDERICKSBRG* SUNNY     37  11  34 NW7       30.47R
STAFFORD*      SUNNY     36   5  27 N13       30.51R WCI  27

$$

NCZ024-NYZ072-PAZ021-071-VAZ022-071-211700-
OTHER REGIONAL OBSERVATIONS

CITY           SKY/WX    TMP DP  RH WIND       PRES   REMARKS
NEW YORK CITY  SUNNY     32   8  36 VRB7G23   30.30R
PHILADELPHIA   MOSUNNY   33   5  30 NW15      30.38R WCI  23
PITTSBURGH     PTSUNNY   23  11  60 NW10      30.44R WCI  12
ROANOKE        SUNNY     36   8  31 NW7       30.44R
RICHMOND       MOSUNNY   41   9  26 W12       30.45R
RALEIGH        MOSUNNY   45  12  26 N7        30.44R

$$

ANZ530>537-211700-
MARINE OBSERVATIONS

STATION/POSITION TIME  TEMP    WIND        PRES
                       AIR SEA DIR/SP/G
                 (UTC) (F)     (DEG/KT/KT) (MB)
THOMAS PT LIGHT  1600   32 47  320/ 21/ 24 1031.6R
BALT KEY BRIDGE  1600   31     300/ 20/ 26 1030.3F
COVE POINT       1600   32     350/ 16/ 21 1030.5S
LEWISETTA        1600   35 43  340/ 11/ 15 1031.2R
SOLOMONS ISLAND  1600      49                N/A
PINEY POINT      1600          330/ 22/ 24   N/A

$$



USA.gov is the U.S. government's official web portal to all federal, state and local government web resources and services.